Time,TemperatureF,DewpointF,PressureIn,WindDirection,WindDirectionDegrees,WindSpeedMPH,WindSpeedGustMPH,Humidity,HourlyPrecipIn,Conditions,Clouds,dailyrainin,SolarRadiationWatts/m^2,SoftwareType,DateUTC
2014-12-18 00:01:00,36.9,31.8,29.85,West,265,0.9,6.0,82,0.00,,,0.00,0.0,meteobridge,2014-12-18 05:01:00,
2014-12-18 00:06:00,36.9,31.8,29.84,NW,326,2.0,4.0,82,0.00,,,0.00,0.0,meteobridge,2014-12-18 05:06:00,
2014-12-18 00:11:00,37.0,32.0,29.84,SW,214,4.9,5.0,82,0.00,,,0.00,0.0,meteobridge,2014-12-18 05:11:00,
2014-12-18 00:16:00,37.0,32.0,29.84,West,269,2.9,8.0,82,0.00,,,0.00,0.0,meteobridge,2014-12-18 05:16:00,
2014-12-18 00:21:00,37.0,32.0,29.84,WNW,301,0.9,7.0,82,0.00,,,0.00,0.0,meteobridge,2014-12-18 05:21:00,
2014-12-18 00:26:00,36.9,31.8,29.83,WNW,289,0.0,14.0,82,0.00,,,0.00,0.0,meteobridge,2014-12-18 05:26:00,
2014-12-18 00:32:00,36.9,31.8,29.83,West,270,0.0,5.0,82,0.00,,,0.00,0.0,meteobridge,2014-12-18 05:32:00,
2014-12-18 00:37:00,36.9,31.8,29.83,WNW,302,2.0,7.0,82,0.00,,,0.00,0.0,meteobridge,2014-12-18 05:37:00,
2014-12-18 00:42:00,36.9,31.8,29.83,West,273,0.9,3.0,82,0.00,,,0.00,0.0,meteobridge,2014-12-18 05:42:00,
2014-12-18 00:47:00,36.9,32.2,29.83,NW,309,0.0,4.0,83,0.00,,,0.00,0.0,meteobridge,2014-12-18 05:47:00,
2014-12-18 00:52:00,36.7,32.0,29.83,WNW,290,0.0,10.0,83,0.00,,,0.00,0.0,meteobridge,2014-12-18 05:52:00,
2014-12-18 00:57:00,36.7,32.0,29.83,WNW,284,2.9,11.0,83,0.00,,,0.00,0.0,meteobridge,2014-12-18 05:57:00,
2014-12-18 01:02:00,36.3,32.0,29.83,West,265,2.0,3.0,84,0.00,,,0.00,0.0,meteobridge,2014-12-18 06:02:00,
2014-12-18 01:07:00,36.3,32.0,29.83,NW,317,2.9,5.0,84,0.00,,,0.00,0.0,meteobridge,2014-12-18 06:07:00,
2014-12-18 01:12:00,36.1,31.8,29.83,West,277,2.9,4.0,84,0.00,,,0.00,0.0,meteobridge,2014-12-18 06:12:00,
2014-12-18 01:17:00,36.0,31.8,29.83,WSW,249,4.0,9.0,85,0.00,,,0.00,0.0,meteobridge,2014-12-18 06:17:00,
2014-12-18 01:22:00,36.0,31.8,29.83,WNW,300,2.0,5.0,85,0.00,,,0.00,0.0,meteobridge,2014-12-18 06:22:00,
2014-12-18 01:27:00,35.8,32.0,29.83,WSW,243,0.0,4.0,86,0.00,,,0.00,0.0,meteobridge,2014-12-18 06:27:00,
2014-12-18 01:32:00,35.6,31.8,29.83,WNW,291,2.0,4.0,86,0.00,,,0.00,0.0,meteobridge,2014-12-18 06:32:00,
2014-12-18 01:37:00,35.4,31.6,29.83,West,265,0.9,3.0,86,0.00,,,0.00,0.0,meteobridge,2014-12-18 06:37:00,
2014-12-18 01:42:00,35.4,31.6,29.83,West,271,2.0,3.0,86,0.00,,,0.00,0.0,meteobridge,2014-12-18 06:42:00,
2014-12-18 01:47:00,35.2,31.8,29.83,WSW,256,10.1,10.1,87,0.00,,,0.00,0.0,meteobridge,2014-12-18 06:47:00,
2014-12-18 01:53:00,35.1,31.6,29.83,SW,229,2.0,4.0,87,0.00,,,0.00,0.0,meteobridge,2014-12-18 06:53:00,
2014-12-18 01:58:00,35.1,31.6,29.83,SSW,201,0.9,7.0,87,0.00,,,0.00,0.0,meteobridge,2014-12-18 06:58:00,
2014-12-18 02:03:00,34.9,31.5,29.84,WNW,292,0.9,4.0,87,0.00,,,0.00,0.0,meteobridge,2014-12-18 07:03:00,
2014-12-18 02:08:00,34.9,31.6,29.84,West,260,0.0,4.0,88,0.00,,,0.00,0.0,meteobridge,2014-12-18 07:08:00,
2014-12-18 02:13:00,34.9,31.6,29.84,West,263,2.0,6.0,88,0.00,,,0.01,0.0,meteobridge,2014-12-18 07:13:00,
2014-12-18 02:18:00,34.9,31.6,29.84,WNW,294,2.0,4.0,88,0.01,,,0.01,0.0,meteobridge,2014-12-18 07:18:00,
2014-12-18 02:23:00,34.7,31.5,29.84,WSW,251,6.0,17.0,88,0.01,,,0.01,0.0,meteobridge,2014-12-18 07:23:00,
2014-12-18 02:28:00,34.9,31.6,29.84,WNW,302,8.9,9.0,88,0.01,,,0.01,0.0,meteobridge,2014-12-18 07:28:00,
2014-12-18 02:33:00,34.9,31.6,29.84,WSW,249,0.0,5.0,88,0.01,,,0.01,0.0,meteobridge,2014-12-18 07:33:00,
2014-12-18 02:38:00,34.9,31.5,29.84,West,269,0.0,13.0,87,0.01,,,0.01,0.0,meteobridge,2014-12-18 07:38:00,
2014-12-18 02:43:00,34.9,31.5,29.84,West,275,2.9,12.0,87,0.01,,,0.01,0.0,meteobridge,2014-12-18 07:43:00,
2014-12-18 02:49:00,35.1,31.3,29.84,WNW,294,0.9,5.0,86,0.01,,,0.01,0.0,meteobridge,2014-12-18 07:49:00,
2014-12-18 02:54:00,35.1,31.3,29.84,WSW,254,12.1,12.1,86,0.01,,,0.01,0.0,meteobridge,2014-12-18 07:54:00,
2014-12-18 02:59:00,35.1,31.3,29.84,NW,324,2.0,7.0,86,0.01,,,0.01,0.0,meteobridge,2014-12-18 07:59:00,
2014-12-18 03:04:00,35.1,31.3,29.84,NW,315,0.9,5.0,86,0.01,,,0.01,0.0,meteobridge,2014-12-18 08:04:00,
2014-12-18 03:09:00,35.1,31.3,29.84,West,262,4.0,7.0,86,0.01,,,0.01,0.0,meteobridge,2014-12-18 08:09:00,
2014-12-18 03:14:00,35.1,31.3,29.84,NW,311,0.0,11.0,86,0.00,,,0.01,0.0,meteobridge,2014-12-18 08:14:00,
2014-12-18 03:19:00,34.9,31.1,29.84,NNW,337,10.1,16.0,86,0.00,,,0.01,0.0,meteobridge,2014-12-18 08:19:00,
2014-12-18 03:24:00,34.9,31.1,29.84,WNW,295,2.9,11.0,86,0.00,,,0.01,0.0,meteobridge,2014-12-18 08:24:00,
2014-12-18 03:29:00,34.7,30.9,29.84,West,263,0.0,3.0,86,0.00,,,0.01,0.0,meteobridge,2014-12-18 08:29:00,
2014-12-18 03:34:00,34.7,31.3,29.84,WNW,290,0.0,7.0,87,0.00,,,0.01,0.0,meteobridge,2014-12-18 08:34:00,
2014-12-18 03:39:00,34.5,31.1,29.84,West,259,2.0,4.0,87,0.00,,,0.01,0.0,meteobridge,2014-12-18 08:39:00,
2014-12-18 03:44:00,34.5,31.1,29.84,WNW,296,0.9,6.0,87,0.00,,,0.01,0.0,meteobridge,2014-12-18 08:44:00,
2014-12-18 03:49:00,34.5,31.1,29.84,NE,37,0.0,8.0,87,0.00,,,0.01,0.0,meteobridge,2014-12-18 08:49:00,
2014-12-18 03:54:00,34.5,31.1,29.84,West,268,2.9,8.0,87,0.00,,,0.01,0.0,meteobridge,2014-12-18 08:54:00,
2014-12-18 03:59:00,34.5,31.1,29.84,NW,304,4.0,11.0,87,0.00,,,0.01,0.0,meteobridge,2014-12-18 08:59:00,
2014-12-18 04:04:00,34.5,31.1,29.84,North,0,2.0,4.0,87,0.00,,,0.01,0.0,meteobridge,2014-12-18 09:04:00,
2014-12-18 04:09:00,34.5,31.1,29.84,WSW,252,0.9,7.0,87,0.00,,,0.01,0.0,meteobridge,2014-12-18 09:09:00,
2014-12-18 04:14:00,34.5,30.7,29.84,NW,307,4.9,14.0,86,0.00,,,0.01,0.0,meteobridge,2014-12-18 09:14:00,
2014-12-18 04:19:00,34.5,30.7,29.84,NW,325,0.0,11.0,86,0.00,,,0.01,0.0,meteobridge,2014-12-18 09:19:00,
2014-12-18 04:24:00,34.5,30.7,29.84,NW,307,4.0,11.0,86,0.00,,,0.01,0.0,meteobridge,2014-12-18 09:24:00,
2014-12-18 04:29:00,34.5,30.7,29.84,North,0,10.1,15.0,86,0.00,,,0.01,0.0,meteobridge,2014-12-18 09:29:00,
2014-12-18 04:34:00,34.5,30.7,29.84,NW,315,8.1,12.0,86,0.00,,,0.01,0.0,meteobridge,2014-12-18 09:34:00,
2014-12-18 04:39:00,34.7,30.9,29.84,WSW,253,2.9,6.0,86,0.00,,,0.01,0.0,meteobridge,2014-12-18 09:39:00,
2014-12-18 04:44:00,34.7,30.7,29.84,WNW,295,0.0,13.0,85,0.00,,,0.01,0.0,meteobridge,2014-12-18 09:44:00,
2014-12-18 04:49:00,34.9,30.9,29.84,WNW,297,0.0,13.0,85,0.00,,,0.01,0.0,meteobridge,2014-12-18 09:49:00,
2014-12-18 04:54:00,34.9,30.9,29.84,WNW,292,4.0,11.0,85,0.00,,,0.01,0.0,meteobridge,2014-12-18 09:54:00,
2014-12-18 04:59:00,35.1,30.7,29.85,WNW,298,6.9,15.0,84,0.00,,,0.01,0.0,meteobridge,2014-12-18 09:59:00,
2014-12-18 05:04:00,35.1,30.7,29.85,WNW,303,4.0,5.0,84,0.00,,,0.01,0.0,meteobridge,2014-12-18 10:04:00,
2014-12-18 05:09:00,35.1,30.4,29.85,NNE,15,8.1,9.0,83,0.00,,,0.01,0.0,meteobridge,2014-12-18 10:09:00,
2014-12-18 05:14:00,35.1,30.4,29.85,WSW,247,2.9,10.0,83,0.00,,,0.01,0.0,meteobridge,2014-12-18 10:14:00,
2014-12-18 05:19:00,35.1,30.4,29.85,WNW,283,0.9,11.0,83,0.00,,,0.01,0.0,meteobridge,2014-12-18 10:19:00,
2014-12-18 05:25:00,35.1,30.4,29.85,West,267,14.1,16.0,83,0.00,,,0.01,0.0,meteobridge,2014-12-18 10:25:00,
2014-12-18 05:30:00,35.1,30.4,29.85,NNW,336,4.0,11.0,83,0.00,,,0.01,0.0,meteobridge,2014-12-18 10:30:00,
2014-12-18 05:35:00,35.1,30.2,29.86,WNW,296,17.9,18.0,82,0.00,,,0.01,0.0,meteobridge,2014-12-18 10:35:00,
2014-12-18 05:40:00,35.1,30.2,29.86,NNW,327,0.9,12.0,82,0.00,,,0.01,0.0,meteobridge,2014-12-18 10:40:00,
2014-12-18 05:45:00,35.2,30.4,29.86,West,275,0.0,12.0,82,0.00,,,0.01,0.0,meteobridge,2014-12-18 10:45:00,
2014-12-18 05:50:00,35.2,30.4,29.87,SSW,209,12.1,12.1,82,0.00,,,0.01,0.0,meteobridge,2014-12-18 10:50:00,
2014-12-18 05:55:00,35.2,30.0,29.87,NW,309,6.9,7.0,81,0.00,,,0.01,0.0,meteobridge,2014-12-18 10:55:00,
2014-12-18 06:00:00,35.2,30.0,29.87,WNW,283,2.0,15.0,81,0.00,,,0.01,0.0,meteobridge,2014-12-18 11:00:00,
2014-12-18 06:05:00,35.2,30.0,29.87,NNW,343,2.0,14.0,81,0.00,,,0.01,0.0,meteobridge,2014-12-18 11:05:00,
2014-12-18 06:10:00,35.2,30.0,29.87,WNW,296,2.0,7.0,81,0.00,,,0.01,0.0,meteobridge,2014-12-18 11:10:00,
2014-12-18 06:15:00,35.2,30.0,29.88,WNW,284,4.9,7.0,81,0.00,,,0.01,0.0,meteobridge,2014-12-18 11:15:00,
2014-12-18 06:20:00,35.2,30.0,29.88,WNW,295,2.0,13.0,81,0.00,,,0.01,0.0,meteobridge,2014-12-18 11:20:00,
2014-12-18 06:25:00,35.2,30.0,29.88,WNW,300,16.1,16.1,81,0.00,,,0.01,0.0,meteobridge,2014-12-18 11:25:00,
2014-12-18 06:30:00,35.2,30.0,29.88,WNW,301,6.0,9.0,81,0.00,,,0.01,0.0,meteobridge,2014-12-18 11:30:00,
2014-12-18 06:35:00,35.2,29.7,29.88,NW,319,6.0,13.0,80,0.00,,,0.01,0.0,meteobridge,2014-12-18 11:35:00,
2014-12-18 06:40:00,35.2,29.7,29.88,West,275,4.0,12.0,80,0.00,,,0.01,0.0,meteobridge,2014-12-18 11:40:00,
2014-12-18 06:45:00,35.2,29.7,29.89,WNW,287,0.9,9.0,80,0.00,,,0.01,0.0,meteobridge,2014-12-18 11:45:00,
2014-12-18 06:50:00,35.2,30.0,29.88,West,265,8.1,9.0,81,0.00,,,0.01,0.0,meteobridge,2014-12-18 11:50:00,
2014-12-18 06:55:00,35.2,30.0,29.89,NE,43,2.0,10.0,81,0.00,,,0.01,0.0,meteobridge,2014-12-18 11:55:00,
2014-12-18 07:00:00,35.2,30.0,29.89,NW,315,6.0,11.0,81,0.00,,,0.01,0.0,meteobridge,2014-12-18 12:00:00,
2014-12-18 07:05:00,35.1,29.8,29.88,NW,305,2.0,14.0,81,0.00,,,0.01,0.0,meteobridge,2014-12-18 12:05:00,
2014-12-18 07:10:00,35.1,29.5,29.89,NNE,30,8.9,13.0,80,0.00,,,0.01,0.0,meteobridge,2014-12-18 12:10:00,
2014-12-18 07:15:00,35.1,29.5,29.89,West,280,10.1,16.0,80,0.00,,,0.01,0.0,meteobridge,2014-12-18 12:15:00,
2014-12-18 07:20:00,35.1,29.5,29.89,WNW,303,0.9,6.0,80,0.00,,,0.01,0.0,meteobridge,2014-12-18 12:20:00,
2014-12-18 07:25:00,35.1,29.5,29.89,West,280,10.1,16.0,80,0.00,,,0.01,0.0,meteobridge,2014-12-18 12:25:00,
2014-12-18 07:30:00,35.1,29.5,29.90,North,350,8.1,9.0,80,0.00,,,0.01,0.0,meteobridge,2014-12-18 12:30:00,
2014-12-18 07:35:00,35.1,29.5,29.89,NNW,327,4.9,6.0,80,0.00,,,0.01,0.0,meteobridge,2014-12-18 12:35:00,
2014-12-18 07:40:00,35.1,29.5,29.89,WNW,298,8.9,13.0,80,0.00,,,0.01,5.0,meteobridge,2014-12-18 12:40:00,
2014-12-18 07:45:00,35.1,29.5,29.90,West,278,6.9,14.0,80,0.00,,,0.01,7.0,meteobridge,2014-12-18 12:45:00,
2014-12-18 07:50:00,35.1,29.5,29.90,NNE,15,6.0,10.0,80,0.00,,,0.01,7.0,meteobridge,2014-12-18 12:50:00,
2014-12-18 07:55:00,35.1,29.5,29.90,NW,320,12.1,20.0,80,0.00,,,0.01,11.0,meteobridge,2014-12-18 12:55:00,
2014-12-18 08:00:00,35.1,29.5,29.90,West,279,2.9,5.0,80,0.00,,,0.01,11.0,meteobridge,2014-12-18 13:00:00,
2014-12-18 08:05:00,35.1,29.5,29.90,NNW,327,4.9,19.0,80,0.00,,,0.01,18.0,meteobridge,2014-12-18 13:05:00,
2014-12-18 08:10:00,35.1,29.5,29.90,West,266,6.0,13.0,80,0.00,,,0.01,26.0,meteobridge,2014-12-18 13:10:00,
2014-12-18 08:15:00,35.1,29.5,29.90,NW,309,2.9,11.0,80,0.00,,,0.01,37.0,meteobridge,2014-12-18 13:15:00,
2014-12-18 08:20:00,35.2,29.3,29.90,NW,304,0.9,13.0,79,0.00,,,0.01,26.0,meteobridge,2014-12-18 13:20:00,
2014-12-18 08:25:00,35.2,29.3,29.90,NW,317,2.0,10.0,79,0.00,,,0.01,23.0,meteobridge,2014-12-18 13:25:00,
2014-12-18 08:30:00,35.2,29.3,29.91,NW,306,4.9,10.0,79,0.00,,,0.01,18.0,meteobridge,2014-12-18 13:30:00,
2014-12-18 08:35:00,35.2,29.3,29.91,WNW,286,2.0,11.0,79,0.00,,,0.01,25.0,meteobridge,2014-12-18 13:35:00,
2014-12-18 08:40:00,35.2,29.3,29.91,WSW,244,0.0,10.0,79,0.00,,,0.01,23.0,meteobridge,2014-12-18 13:40:00,
2014-12-18 08:45:00,35.2,29.3,29.91,NW,313,4.0,15.0,79,0.00,,,0.01,21.0,meteobridge,2014-12-18 13:45:00,
2014-12-18 08:50:00,35.2,29.3,29.91,WNW,298,13.0,13.0,79,0.00,,,0.01,23.0,meteobridge,2014-12-18 13:50:00,
2014-12-18 08:56:00,35.2,29.7,29.91,WNW,300,4.0,19.0,80,0.00,,,0.01,21.0,meteobridge,2014-12-18 13:56:00,
2014-12-18 09:01:00,35.2,29.7,29.91,West,268,0.9,7.0,80,0.00,,,0.01,23.0,meteobridge,2014-12-18 14:01:00,
2014-12-18 09:06:00,35.2,29.7,29.91,WNW,282,0.0,10.0,80,0.00,,,0.01,33.0,meteobridge,2014-12-18 14:06:00,
2014-12-18 09:11:00,35.2,29.7,29.92,NW,315,4.9,14.0,80,0.00,,,0.01,44.0,meteobridge,2014-12-18 14:11:00,
2014-12-18 09:16:00,35.2,29.7,29.92,NW,310,0.0,3.0,80,0.00,,,0.01,42.0,meteobridge,2014-12-18 14:16:00,
2014-12-18 09:21:00,35.4,29.8,29.92,NW,319,0.9,11.0,80,0.00,,,0.01,35.0,meteobridge,2014-12-18 14:21:00,
2014-12-18 09:26:00,35.2,29.7,29.92,NNW,340,0.0,7.0,80,0.00,,,0.01,44.0,meteobridge,2014-12-18 14:26:00,
2014-12-18 09:31:00,35.2,29.7,29.92,WNW,284,6.9,10.0,80,0.00,,,0.01,44.0,meteobridge,2014-12-18 14:31:00,
2014-12-18 09:36:00,35.4,29.8,29.92,WSW,252,4.9,11.0,80,0.00,,,0.01,47.0,meteobridge,2014-12-18 14:36:00,
2014-12-18 09:41:00,35.4,29.8,29.92,West,272,2.0,13.0,80,0.00,,,0.01,37.0,meteobridge,2014-12-18 14:41:00,
2014-12-18 09:46:00,35.4,29.8,29.93,NNW,348,6.0,6.0,80,0.00,,,0.01,33.0,meteobridge,2014-12-18 14:46:00,
2014-12-18 09:51:00,35.4,29.8,29.93,NE,38,0.0,4.0,80,0.00,,,0.01,32.0,meteobridge,2014-12-18 14:51:00,
2014-12-18 09:56:00,35.4,29.8,29.93,NW,304,2.0,6.0,80,0.00,,,0.01,35.0,meteobridge,2014-12-18 14:56:00,
2014-12-18 10:01:00,35.4,29.8,29.93,NNE,30,2.0,11.0,80,0.00,,,0.01,33.0,meteobridge,2014-12-18 15:01:00,
2014-12-18 10:06:00,35.4,29.8,29.93,NW,324,2.0,13.0,80,0.00,,,0.01,46.0,meteobridge,2014-12-18 15:06:00,
2014-12-18 10:11:00,35.4,29.8,29.93,WNW,290,0.9,10.0,80,0.00,,,0.01,39.0,meteobridge,2014-12-18 15:11:00,
2014-12-18 10:16:00,35.4,29.8,29.93,NW,319,12.1,12.1,80,0.00,,,0.01,44.0,meteobridge,2014-12-18 15:16:00,
2014-12-18 10:21:00,35.4,29.8,29.93,WSW,248,4.0,14.0,80,0.00,,,0.01,53.0,meteobridge,2014-12-18 15:21:00,
2014-12-18 10:26:00,35.4,29.8,29.93,WNW,288,10.1,10.1,80,0.00,,,0.01,49.0,meteobridge,2014-12-18 15:26:00,
2014-12-18 10:31:00,35.4,29.8,29.93,NW,314,0.0,7.0,80,0.00,,,0.01,51.0,meteobridge,2014-12-18 15:31:00,
2014-12-18 10:36:00,35.4,29.8,29.93,ESE,115,0.9,6.0,80,0.00,,,0.01,56.0,meteobridge,2014-12-18 15:36:00,
2014-12-18 10:41:00,35.4,29.8,29.93,NNW,330,0.0,11.0,80,0.00,,,0.01,72.0,meteobridge,2014-12-18 15:41:00,
2014-12-18 10:46:00,35.4,29.8,29.93,NNW,328,2.0,10.0,80,0.00,,,0.01,58.0,meteobridge,2014-12-18 15:46:00,
2014-12-18 10:51:00,35.4,29.8,29.93,West,273,4.9,18.0,80,0.00,,,0.01,56.0,meteobridge,2014-12-18 15:51:00,
2014-12-18 10:56:00,35.6,30.0,29.93,WNW,303,2.0,4.0,80,0.00,,,0.01,58.0,meteobridge,2014-12-18 15:56:00,
2014-12-18 11:01:00,35.6,30.0,29.93,East,90,2.9,6.0,80,0.00,,,0.01,56.0,meteobridge,2014-12-18 16:01:00,
2014-12-18 11:06:00,35.8,30.2,29.93,West,262,2.9,11.0,80,0.00,,,0.01,63.0,meteobridge,2014-12-18 16:06:00,
2014-12-18 11:11:00,35.8,30.2,29.93,WNW,283,4.0,6.0,80,0.00,,,0.01,84.0,meteobridge,2014-12-18 16:11:00,
2014-12-18 11:16:00,35.8,29.8,29.93,North,350,2.9,18.0,79,0.00,,,0.01,105.0,meteobridge,2014-12-18 16:16:00,
2014-12-18 11:21:00,36.0,30.0,29.92,WSW,243,21.0,21.0,79,0.00,,,0.01,113.0,meteobridge,2014-12-18 16:21:00,
2014-12-18 11:26:00,36.0,29.8,29.92,WSW,242,8.9,13.0,78,0.00,,,0.01,128.0,meteobridge,2014-12-18 16:26:00,
2014-12-18 11:31:00,36.0,29.8,29.92,WSW,252,10.1,12.0,78,0.00,,,0.01,86.0,meteobridge,2014-12-18 16:31:00,
2014-12-18 11:36:00,36.1,30.0,29.92,WNW,296,6.9,7.0,78,0.00,,,0.01,102.0,meteobridge,2014-12-18 16:36:00,
2014-12-18 11:42:00,36.1,30.0,29.92,WNW,292,10.1,15.0,78,0.00,,,0.01,53.0,meteobridge,2014-12-18 16:42:00,
2014-12-18 11:47:00,36.1,30.0,29.91,WNW,300,4.0,19.0,78,0.00,,,0.01,79.0,meteobridge,2014-12-18 16:47:00,
2014-12-18 11:52:00,36.1,29.7,29.91,NW,306,8.9,16.0,77,0.00,,,0.01,114.0,meteobridge,2014-12-18 16:52:00,
2014-12-18 11:57:00,36.1,29.7,29.91,WNW,293,6.0,9.0,77,0.00,,,0.01,109.0,meteobridge,2014-12-18 16:57:00,
2014-12-18 12:02:00,36.3,30.2,29.91,WNW,288,4.0,7.0,78,0.00,,,0.01,105.0,meteobridge,2014-12-18 17:02:00,
2014-12-18 12:07:00,36.3,29.8,29.91,WNW,292,0.9,6.0,77,0.00,,,0.01,81.0,meteobridge,2014-12-18 17:07:00,
2014-12-18 12:12:00,36.3,29.8,29.91,WNW,299,6.0,11.0,77,0.00,,,0.01,72.0,meteobridge,2014-12-18 17:12:00,
2014-12-18 12:17:00,36.3,29.8,29.91,NW,309,4.0,16.0,77,0.00,,,0.01,70.0,meteobridge,2014-12-18 17:17:00,
2014-12-18 12:22:00,36.3,29.8,29.90,WNW,294,2.0,12.0,77,0.00,,,0.01,98.0,meteobridge,2014-12-18 17:22:00,
2014-12-18 12:27:00,36.1,29.7,29.90,NW,312,2.9,18.0,77,0.00,,,0.01,125.0,meteobridge,2014-12-18 17:27:00,
2014-12-18 12:32:00,36.3,29.8,29.90,NNE,28,4.0,17.0,77,0.00,,,0.01,111.0,meteobridge,2014-12-18 17:32:00,
2014-12-18 12:37:00,36.3,29.8,29.90,NW,313,10.1,11.0,77,0.00,,,0.01,114.0,meteobridge,2014-12-18 17:37:00,
2014-12-18 12:42:00,36.3,29.8,29.90,NW,323,2.0,10.0,77,0.00,,,0.01,118.0,meteobridge,2014-12-18 17:42:00,
2014-12-18 12:47:00,36.3,29.5,29.90,SSE,161,2.9,12.0,76,0.00,,,0.01,141.0,meteobridge,2014-12-18 17:47:00,
2014-12-18 12:52:00,36.7,30.2,29.89,NW,318,4.0,7.0,77,0.00,,,0.01,195.0,meteobridge,2014-12-18 17:52:00,
2014-12-18 12:57:00,36.7,29.8,29.89,WNW,296,0.9,7.0,76,0.00,,,0.01,174.0,meteobridge,2014-12-18 17:57:00,
2014-12-18 13:02:00,36.9,30.4,29.90,West,281,11.0,18.0,77,0.00,,,0.01,153.0,meteobridge,2014-12-18 18:02:00,
2014-12-18 13:07:00,37.0,30.2,29.89,WNW,298,2.9,12.0,76,0.00,,,0.01,128.0,meteobridge,2014-12-18 18:07:00,
2014-12-18 13:12:00,37.0,30.2,29.89,WNW,289,8.9,18.0,76,0.00,,,0.01,137.0,meteobridge,2014-12-18 18:12:00,
2014-12-18 13:17:00,37.0,29.8,29.90,NW,310,2.9,16.0,75,0.00,,,0.01,111.0,meteobridge,2014-12-18 18:17:00,
2014-12-18 13:22:00,37.0,29.8,29.90,WNW,291,4.0,14.0,75,0.00,,,0.01,88.0,meteobridge,2014-12-18 18:22:00,
2014-12-18 13:28:00,37.0,29.8,29.90,NE,54,2.9,10.0,75,0.00,,,0.01,137.0,meteobridge,2014-12-18 18:28:00,
2014-12-18 13:33:00,36.9,29.7,29.90,WSW,248,2.9,11.0,75,0.00,,,0.01,95.0,meteobridge,2014-12-18 18:33:00,
2014-12-18 13:38:00,36.9,29.7,29.90,WNW,296,2.9,9.0,75,0.00,,,0.01,81.0,meteobridge,2014-12-18 18:38:00,
2014-12-18 13:43:00,36.9,29.7,29.91,NW,310,6.0,11.0,75,0.00,,,0.01,77.0,meteobridge,2014-12-18 18:43:00,
2014-12-18 13:48:00,36.9,29.7,29.90,WNW,300,0.0,5.0,75,0.00,,,0.01,74.0,meteobridge,2014-12-18 18:48:00,
2014-12-18 13:53:00,36.9,30.0,29.90,WNW,303,2.0,2.0,76,0.00,,,0.01,67.0,meteobridge,2014-12-18 18:53:00,
2014-12-18 13:58:00,36.7,29.5,29.91,ENE,70,2.0,13.0,75,0.00,,,0.01,54.0,meteobridge,2014-12-18 18:58:00,
2014-12-18 14:03:00,36.7,29.8,29.91,South,186,4.0,5.0,76,0.00,,,0.01,54.0,meteobridge,2014-12-18 19:03:00,
2014-12-18 14:08:00,36.7,29.8,29.91,WNW,298,2.9,11.0,76,0.00,,,0.01,53.0,meteobridge,2014-12-18 19:08:00,
2014-12-18 14:13:00,36.7,29.8,29.91,NW,319,2.9,12.0,76,0.00,,,0.01,47.0,meteobridge,2014-12-18 19:13:00,
2014-12-18 14:18:00,36.5,29.3,29.91,West,260,4.9,9.0,75,0.00,,,0.01,49.0,meteobridge,2014-12-18 19:18:00,
2014-12-18 14:23:00,36.5,29.7,29.91,WNW,301,8.1,11.0,76,0.00,,,0.01,42.0,meteobridge,2014-12-18 19:23:00,
2014-12-18 14:28:00,36.3,29.5,29.91,WNW,301,2.9,12.0,76,0.00,,,0.01,40.0,meteobridge,2014-12-18 19:28:00,
2014-12-18 14:33:00,36.3,29.5,29.91,WNW,297,4.9,16.0,76,0.00,,,0.01,42.0,meteobridge,2014-12-18 19:33:00,
2014-12-18 14:38:00,36.3,29.5,29.91,SW,234,6.0,16.0,76,0.00,,,0.01,46.0,meteobridge,2014-12-18 19:38:00,
2014-12-18 14:43:00,36.3,29.5,29.91,NW,311,0.9,16.0,76,0.00,,,0.01,54.0,meteobridge,2014-12-18 19:43:00,
2014-12-18 14:48:00,36.3,29.5,29.91,WNW,294,8.9,14.0,76,0.00,,,0.01,72.0,meteobridge,2014-12-18 19:48:00,
2014-12-18 14:53:00,36.3,29.5,29.91,WNW,291,4.0,9.0,76,0.00,,,0.01,72.0,meteobridge,2014-12-18 19:53:00,
2014-12-18 14:58:00,36.3,29.5,29.91,NW,315,4.0,11.0,76,0.00,,,0.01,47.0,meteobridge,2014-12-18 19:58:00,
2014-12-18 15:03:00,36.3,29.5,29.91,WNW,302,0.0,10.0,76,0.00,,,0.01,40.0,meteobridge,2014-12-18 20:03:00,
2014-12-18 15:08:00,36.3,29.5,29.91,West,265,6.9,11.0,76,0.00,,,0.01,33.0,meteobridge,2014-12-18 20:08:00,
2014-12-18 15:13:00,36.3,29.5,29.91,West,273,2.9,16.0,76,0.00,,,0.01,25.0,meteobridge,2014-12-18 20:13:00,
2014-12-18 15:18:00,36.1,29.3,29.91,West,277,4.0,5.0,76,0.00,,,0.01,25.0,meteobridge,2014-12-18 20:18:00,
2014-12-18 15:23:00,36.1,29.3,29.91,WNW,300,4.9,6.0,76,0.00,,,0.01,19.0,meteobridge,2014-12-18 20:23:00,
2014-12-18 15:28:00,36.1,29.3,29.91,West,279,0.9,11.0,76,0.00,,,0.01,18.0,meteobridge,2014-12-18 20:28:00,
2014-12-18 15:33:00,36.1,29.3,29.92,West,265,2.0,11.0,76,0.00,,,0.01,14.0,meteobridge,2014-12-18 20:33:00,
2014-12-18 15:38:00,36.0,29.1,29.92,West,277,2.0,12.0,76,0.00,,,0.01,11.0,meteobridge,2014-12-18 20:38:00,
2014-12-18 15:44:00,36.0,29.1,29.92,NW,312,2.9,9.0,76,0.00,,,0.01,9.0,meteobridge,2014-12-18 20:44:00,
2014-12-18 15:49:00,36.0,29.1,29.92,WNW,283,8.1,10.0,76,0.00,,,0.01,7.0,meteobridge,2014-12-18 20:49:00,
2014-12-18 15:54:00,36.0,29.1,29.92,NW,318,4.0,6.0,76,0.00,,,0.01,9.0,meteobridge,2014-12-18 20:54:00,
2014-12-18 15:59:00,35.8,29.3,29.93,North,355,0.9,15.0,77,0.00,,,0.01,5.0,meteobridge,2014-12-18 20:59:00,
2014-12-18 16:04:00,35.8,29.3,29.93,WSW,238,8.1,9.0,77,0.00,,,0.01,5.0,meteobridge,2014-12-18 21:04:00,
2014-12-18 16:09:00,35.8,29.3,29.93,WNW,303,4.0,11.0,77,0.00,,,0.01,0.0,meteobridge,2014-12-18 21:09:00,
2014-12-18 16:14:00,35.8,29.3,29.93,NW,325,6.0,12.0,77,0.00,,,0.01,0.0,meteobridge,2014-12-18 21:14:00,
2014-12-18 16:19:00,35.6,29.1,29.93,West,267,4.0,15.0,77,0.00,,,0.01,0.0,meteobridge,2014-12-18 21:19:00,
2014-12-18 16:24:00,35.6,29.5,29.93,NW,304,8.1,17.0,78,0.00,,,0.01,0.0,meteobridge,2014-12-18 21:24:00,
2014-12-18 16:29:00,35.4,28.9,29.93,West,267,2.0,12.0,77,0.00,,,0.01,0.0,meteobridge,2014-12-18 21:29:00,
2014-12-18 16:34:00,35.4,29.3,29.93,NNW,328,2.0,10.0,78,0.00,,,0.01,0.0,meteobridge,2014-12-18 21:34:00,
2014-12-18 16:39:00,35.4,29.3,29.93,NW,322,8.1,11.0,78,0.00,,,0.01,0.0,meteobridge,2014-12-18 21:39:00,
2014-12-18 16:44:00,35.2,29.1,29.93,SSW,209,2.0,7.0,78,0.00,,,0.01,0.0,meteobridge,2014-12-18 21:44:00,
2014-12-18 16:49:00,35.2,29.1,29.93,West,266,0.9,5.0,78,0.00,,,0.01,0.0,meteobridge,2014-12-18 21:49:00,
2014-12-18 16:54:00,35.2,29.1,29.93,WSW,241,11.0,11.0,78,0.00,,,0.01,0.0,meteobridge,2014-12-18 21:54:00,
2014-12-18 16:59:00,35.2,29.1,29.93,NW,307,0.9,10.0,78,0.00,,,0.01,0.0,meteobridge,2014-12-18 21:59:00,
2014-12-18 17:04:00,35.2,29.1,29.93,NNW,327,2.9,5.0,78,0.00,,,0.01,0.0,meteobridge,2014-12-18 22:04:00,
2014-12-18 17:09:00,35.1,29.1,29.93,WNW,302,2.0,11.0,79,0.00,,,0.01,0.0,meteobridge,2014-12-18 22:09:00,
2014-12-18 17:14:00,35.1,29.1,29.93,NW,309,4.0,16.0,79,0.00,,,0.01,0.0,meteobridge,2014-12-18 22:14:00,
2014-12-18 17:19:00,35.1,29.1,29.94,NW,321,4.0,9.0,79,0.00,,,0.01,0.0,meteobridge,2014-12-18 22:19:00,
2014-12-18 17:24:00,34.9,29.1,29.94,WNW,302,6.0,10.0,79,0.00,,,0.01,0.0,meteobridge,2014-12-18 22:24:00,
2014-12-18 17:29:00,34.9,28.8,29.94,NW,326,4.9,14.0,78,0.00,,,0.01,0.0,meteobridge,2014-12-18 22:29:00,
2014-12-18 17:34:00,34.9,29.1,29.95,WNW,298,4.0,11.0,79,0.00,,,0.01,0.0,meteobridge,2014-12-18 22:34:00,
2014-12-18 17:39:00,34.7,28.9,29.95,WNW,298,12.1,12.1,79,0.00,,,0.01,0.0,meteobridge,2014-12-18 22:39:00,
2014-12-18 17:44:00,34.7,28.9,29.95,NW,323,4.0,11.0,79,0.00,,,0.01,0.0,meteobridge,2014-12-18 22:44:00,
2014-12-18 17:49:00,34.5,28.8,29.95,East,94,4.0,12.0,79,0.00,,,0.01,0.0,meteobridge,2014-12-18 22:49:00,
2014-12-18 17:54:00,34.5,28.8,29.95,WNW,290,2.9,13.0,79,0.00,,,0.01,0.0,meteobridge,2014-12-18 22:54:00,
2014-12-18 17:59:00,34.3,28.6,29.95,WNW,287,2.9,14.0,79,0.00,,,0.01,0.0,meteobridge,2014-12-18 22:59:00,
2014-12-18 18:04:00,34.3,28.6,29.95,West,279,10.1,16.0,79,0.00,,,0.01,0.0,meteobridge,2014-12-18 23:04:00,
2014-12-18 18:09:00,34.3,28.6,29.96,WNW,292,4.0,7.0,79,0.00,,,0.01,0.0,meteobridge,2014-12-18 23:09:00,
2014-12-18 18:14:00,34.3,28.6,29.96,NW,317,4.9,12.0,79,0.00,,,0.01,0.0,meteobridge,2014-12-18 23:14:00,
2014-12-18 18:19:00,34.2,28.4,29.96,NE,39,2.0,13.0,79,0.00,,,0.01,0.0,meteobridge,2014-12-18 23:19:00,
2014-12-18 18:24:00,34.2,28.4,29.96,WNW,296,2.9,8.0,79,0.00,,,0.01,0.0,meteobridge,2014-12-18 23:24:00,
2014-12-18 18:29:00,34.2,28.4,29.96,WNW,303,8.9,15.0,79,0.00,,,0.01,0.0,meteobridge,2014-12-18 23:29:00,
2014-12-18 18:34:00,34.2,28.6,29.96,WNW,299,2.9,9.0,80,0.00,,,0.01,0.0,meteobridge,2014-12-18 23:34:00,
2014-12-18 18:39:00,34.2,28.6,29.96,WNW,290,2.9,14.0,80,0.00,,,0.01,0.0,meteobridge,2014-12-18 23:39:00,
2014-12-18 18:44:00,34.2,28.6,29.96,WSW,255,4.0,10.0,80,0.00,,,0.01,0.0,meteobridge,2014-12-18 23:44:00,
2014-12-18 18:49:00,34.2,28.6,29.96,NW,309,0.0,7.0,80,0.00,,,0.01,0.0,meteobridge,2014-12-18 23:49:00,
2014-12-18 18:55:00,34.0,28.4,29.96,WNW,286,4.0,18.0,80,0.00,,,0.01,0.0,meteobridge,2014-12-18 23:55:00,
2014-12-18 19:00:00,34.0,28.4,29.97,NW,306,0.0,10.0,80,0.00,,,0.01,0.0,meteobridge,2014-12-19 00:00:00,
2014-12-18 19:05:00,34.0,28.4,29.97,NNW,336,0.0,3.0,80,0.00,,,0.01,0.0,meteobridge,2014-12-19 00:05:00,
2014-12-18 19:10:00,34.0,28.4,29.96,WSW,252,2.9,10.0,80,0.00,,,0.01,0.0,meteobridge,2014-12-19 00:10:00,
2014-12-18 19:15:00,34.0,28.4,29.96,WNW,289,2.9,11.0,80,0.00,,,0.01,0.0,meteobridge,2014-12-19 00:15:00,
2014-12-18 19:20:00,34.0,28.4,29.97,West,259,8.9,13.0,80,0.00,,,0.01,0.0,meteobridge,2014-12-19 00:20:00,
2014-12-18 19:25:00,34.0,28.4,29.97,SSE,158,0.0,6.0,80,0.00,,,0.01,0.0,meteobridge,2014-12-19 00:25:00,
2014-12-18 19:30:00,34.0,28.8,29.97,WSW,252,0.9,10.0,81,0.00,,,0.01,0.0,meteobridge,2014-12-19 00:30:00,
2014-12-18 19:35:00,33.8,28.6,29.97,NW,307,2.0,15.0,81,0.00,,,0.01,0.0,meteobridge,2014-12-19 00:35:00,
2014-12-18 19:40:00,33.8,28.6,29.97,South,180,4.0,9.0,81,0.00,,,0.01,0.0,meteobridge,2014-12-19 00:40:00,
2014-12-18 19:45:00,33.8,28.6,29.97,WNW,299,6.0,7.0,81,0.00,,,0.01,0.0,meteobridge,2014-12-19 00:45:00,
2014-12-18 19:50:00,33.6,28.4,29.96,North,5,4.0,9.0,81,0.00,,,0.01,0.0,meteobridge,2014-12-19 00:50:00,
2014-12-18 19:55:00,33.6,28.8,29.96,WNW,294,2.0,5.0,82,0.00,,,0.01,0.0,meteobridge,2014-12-19 00:55:00,
2014-12-18 20:01:00,33.6,28.8,29.96,NNW,334,0.0,3.0,82,0.00,,,0.01,0.0,meteobridge,2014-12-19 01:01:00,
2014-12-18 20:06:00,33.6,28.8,29.96,WSW,243,2.0,5.0,82,0.00,,,0.01,0.0,meteobridge,2014-12-19 01:06:00,
2014-12-18 20:11:00,33.6,28.8,29.96,WNW,294,2.9,3.0,82,0.00,,,0.01,0.0,meteobridge,2014-12-19 01:11:00,
2014-12-18 20:16:00,33.6,28.8,29.96,NNW,330,2.0,6.0,82,0.00,,,0.01,0.0,meteobridge,2014-12-19 01:16:00,
2014-12-18 20:21:00,33.6,28.8,29.96,WNW,301,4.0,6.0,82,0.00,,,0.01,0.0,meteobridge,2014-12-19 01:21:00,
2014-12-18 20:26:00,33.4,28.6,29.96,WNW,285,4.9,6.0,82,0.00,,,0.01,0.0,meteobridge,2014-12-19 01:26:00,
2014-12-18 20:31:00,33.4,28.6,29.96,NW,307,2.0,12.0,82,0.00,,,0.01,0.0,meteobridge,2014-12-19 01:31:00,
2014-12-18 20:36:00,33.4,28.6,29.96,NW,321,2.9,5.0,82,0.00,,,0.01,0.0,meteobridge,2014-12-19 01:36:00,
2014-12-18 20:41:00,33.4,28.8,29.96,West,261,0.9,11.0,83,0.00,,,0.01,0.0,meteobridge,2014-12-19 01:41:00,
2014-12-18 20:46:00,33.4,28.8,29.96,West,267,4.0,13.0,83,0.00,,,0.01,0.0,meteobridge,2014-12-19 01:46:00,
2014-12-18 20:51:00,33.4,28.8,29.96,WSW,240,0.0,5.0,83,0.00,,,0.01,0.0,meteobridge,2014-12-19 01:51:00,
2014-12-18 20:56:00,33.4,28.8,29.96,WNW,289,2.9,5.0,83,0.00,,,0.01,0.0,meteobridge,2014-12-19 01:56:00,
2014-12-18 21:01:00,33.4,28.8,29.95,ESE,105,2.0,5.0,83,0.00,,,0.01,0.0,meteobridge,2014-12-19 02:01:00,
2014-12-18 21:06:00,33.4,28.8,29.95,NW,313,0.9,11.0,83,0.00,,,0.01,0.0,meteobridge,2014-12-19 02:06:00,
2014-12-18 21:11:00,33.4,28.8,29.95,WNW,290,4.9,6.0,83,0.00,,,0.01,0.0,meteobridge,2014-12-19 02:11:00,
2014-12-18 21:16:00,33.4,28.8,29.95,WNW,290,0.0,6.0,83,0.00,,,0.01,0.0,meteobridge,2014-12-19 02:16:00,
2014-12-18 21:21:00,33.4,28.8,29.95,WSW,254,2.9,6.0,83,0.00,,,0.01,0.0,meteobridge,2014-12-19 02:21:00,
2014-12-18 21:26:00,33.4,28.8,29.95,WNW,284,4.9,11.0,83,0.00,,,0.01,0.0,meteobridge,2014-12-19 02:26:00,
2014-12-18 21:32:00,33.4,28.8,29.95,South,169,0.0,4.0,83,0.00,,,0.01,0.0,meteobridge,2014-12-19 02:32:00,
2014-12-18 21:37:00,33.4,28.8,29.94,NW,321,0.9,15.0,83,0.00,,,0.01,0.0,meteobridge,2014-12-19 02:37:00,
2014-12-18 21:42:00,33.3,28.6,29.94,WNW,300,11.0,13.0,83,0.00,,,0.01,0.0,meteobridge,2014-12-19 02:42:00,
2014-12-18 21:47:00,33.3,28.6,29.94,NW,304,2.0,7.0,83,0.00,,,0.01,0.0,meteobridge,2014-12-19 02:47:00,
2014-12-18 21:52:00,33.4,28.6,29.94,WNW,288,4.9,6.0,82,0.00,,,0.01,0.0,meteobridge,2014-12-19 02:52:00,
2014-12-18 21:57:00,33.4,28.6,29.94,North,355,0.0,9.0,82,0.00,,,0.01,0.0,meteobridge,2014-12-19 02:57:00,
2014-12-18 22:02:00,33.3,28.4,29.94,WNW,286,2.0,4.0,82,0.00,,,0.01,0.0,meteobridge,2014-12-19 03:02:00,
2014-12-18 22:07:00,33.3,28.4,29.95,West,267,4.0,6.0,82,0.00,,,0.01,0.0,meteobridge,2014-12-19 03:07:00,
2014-12-18 22:12:00,33.3,28.4,29.95,WSW,250,0.9,5.0,82,0.00,,,0.01,0.0,meteobridge,2014-12-19 03:12:00,
2014-12-18 22:17:00,33.3,28.4,29.95,West,269,2.9,12.0,82,0.00,,,0.01,0.0,meteobridge,2014-12-19 03:17:00,
2014-12-18 22:22:00,33.3,28.4,29.95,NW,304,2.9,12.0,82,0.00,,,0.01,0.0,meteobridge,2014-12-19 03:22:00,
2014-12-18 22:27:00,33.3,28.4,29.95,NW,304,2.0,5.0,82,0.00,,,0.01,0.0,meteobridge,2014-12-19 03:27:00,
2014-12-18 22:32:00,33.3,28.4,29.95,WNW,296,2.0,9.0,82,0.00,,,0.01,0.0,meteobridge,2014-12-19 03:32:00,
2014-12-18 22:37:00,33.3,28.4,29.95,WNW,290,2.0,11.0,82,0.00,,,0.01,0.0,meteobridge,2014-12-19 03:37:00,
2014-12-18 22:42:00,33.3,28.4,29.95,NW,306,0.9,11.0,82,0.00,,,0.01,0.0,meteobridge,2014-12-19 03:42:00,
2014-12-18 22:48:00,33.3,28.4,29.95,West,269,0.9,6.0,82,0.00,,,0.01,0.0,meteobridge,2014-12-19 03:48:00,
2014-12-18 22:53:00,33.3,28.4,29.95,WNW,297,2.0,6.0,82,0.00,,,0.01,0.0,meteobridge,2014-12-19 03:53:00,
2014-12-18 22:58:00,33.3,28.4,29.95,West,263,2.0,8.0,82,0.00,,,0.01,0.0,meteobridge,2014-12-19 03:58:00,
2014-12-18 23:03:00,33.3,28.4,29.95,WNW,302,0.9,6.0,82,0.00,,,0.01,0.0,meteobridge,2014-12-19 04:03:00,
2014-12-18 23:08:00,33.3,28.4,29.96,West,279,4.9,14.0,82,0.00,,,0.01,0.0,meteobridge,2014-12-19 04:08:00,
2014-12-18 23:13:00,33.3,28.4,29.96,WNW,300,2.9,13.0,82,0.00,,,0.01,0.0,meteobridge,2014-12-19 04:13:00,
2014-12-18 23:18:00,33.3,28.4,29.95,NW,307,4.0,10.0,82,0.00,,,0.01,0.0,meteobridge,2014-12-19 04:18:00,
2014-12-18 23:23:00,33.3,28.0,29.95,West,262,2.0,5.0,81,0.00,,,0.01,0.0,meteobridge,2014-12-19 04:23:00,
2014-12-18 23:28:00,33.3,28.0,29.95,WNW,289,2.0,11.0,81,0.00,,,0.01,0.0,meteobridge,2014-12-19 04:28:00,
2014-12-18 23:33:00,33.1,27.9,29.95,West,265,4.9,9.0,81,0.00,,,0.01,0.0,meteobridge,2014-12-19 04:33:00,
2014-12-18 23:38:00,33.1,27.9,29.95,SW,236,0.9,7.0,81,0.00,,,0.01,0.0,meteobridge,2014-12-19 04:38:00,
2014-12-18 23:43:00,33.1,27.9,29.95,NE,48,4.0,4.0,81,0.00,,,0.01,0.0,meteobridge,2014-12-19 04:43:00,